sat.trackr.live / text

‹ back to catalog

YAM-10

NORAD 64580 · 2025-135BE

PAYLOAD ACTIVE UNKNOWN

§ Identity

Operator
Country
US
Launch date
2025-06-23
Launch site
AFWTR
Launch vehicle
Mass (kg)
RCS (m²)

External: N2YO · Heavens-Above · Gunter

§ Orbital elements

Epoch: 2026-05-25T00:05:56.172768Z

Period
96.53 min
Inclination
97.7705°
Eccentricity
0.0004559
Mean motion
14.91718327 rev/d
Perigee alt
589.4 km
Apogee alt
595.8 km
Semi-major
6,970.7 km
B*
1.6694e-4
RAAN
259.1830°
Arg perigee
78.5395°
Mean anomaly
281.6335°
Rev number
5,040

§ Raw data

YAM-101 64580U 25135BE  26145.00412237  .00001625  00000+0  16694-3 0  99982 64580  97.7705 259.1830 0004559  78.5395 281.6335 14.91718327 50408

JSON: /api/v1/satellites/64580 · /tle

For live sub-satellite position, see the globe view (requires WebGL).

§ Visibility from observer

Set your observer location to see the next 7 days of passes ≥ 10°. The values pass through the URL so the page stays shareable.

No JS? Fill the form by hand. The geolocation button needs JavaScript.

§ Radio — SatNOGS DB

ModeDescriptionDownlinkUplink
FM S-band telemetry 2.253 GHz

1 transmitter · refreshed weekly from db.satnogs.org